Home > Weather > Hofheim am Taunus > Past weeks

Flag for Germany Weather for the Past 2 Weeks in Hofheim am Taunus, Hesse, Germany

Now
50 °F

Overcast.


Feels Like: 47 °F
Forecast: 39 / 51 °F
Wind: 8 mph from South

Location: Wiesbaden Airport

Current Time: Apr 29, 2016 at 1:18:01 PM

Latest Report: Apr 29, 2016 at 11:58 AM


Visibility: N/A

Pressure: 30.07 "Hg

Humidity: 62%

Dew Point: 37 °F

Location of Hofheim am TaunusLocation

Historic Weather in Hofheim am Taunus — Graph

°F

Hofheim am Taunus Temperature Yesterday

Maximum temperature yesterday: 52 °F (at 3:58 PM)
Minimum temperature yesterday: 32 °F (at 4:58 AM)
Average temperature yesterday: 42 °F

High & Low Weather Summary for the Past Weeks

 TemperatureHumidityPressure
High67 °F (Apr 21, 5:58 PM)100% (Apr 16, 7:58 AM)30.46 "Hg (Apr 16, 7:58 AM)
Low31 °F (Apr 24, 6:58 AM)27% (Apr 20, 3:58 PM)29.58 "Hg (Apr 26, 1:03 AM)
Average47 °F66%29.95 "Hg
* Reported Apr 14 11:58 AM — Apr 29 11:58 AM, Hofheim am Taunus, Weather by CustomWeather, © 2016

Note: Actual official high and low records may vary slightly from our data, if they occured in-between our weather recording intervals... More about our weather records

Advertising

Hofheim am Taunus Weather History for the Previous 24 Hours

Scroll right to see more
 ConditionsComfort  
Time TempWeatherWind HumidityBarometerVisibility
11:58 AM
Fri, Apr 29
50 °FOvercast.8 mph62%30.07 "HgN/A
10:58 AM46 °FOvercast.3 mph71%30.08 "HgN/A
9:58 AM43 °FOvercast.2 mph75%30.09 "HgN/A
8:58 AM40 °FPassing clouds.2 mph82%30.08 "HgN/A
7:58 AM37 °FSunny.1 mph88%30.07 "HgN/A
6:58 AM31 °FClear.2 mph90%30.06 "HgN/A
5:58 AM31 °FPassing clouds.No wind90%30.06 "HgN/A
4:58 AM31 °FClear.No wind88%30.05 "HgN/A
2:58 AM32 °FClear.No wind93%30.05 "HgN/A
1:58 AM34 °FClear.No wind87%30.06 "HgN/A
12:58 AM35 °FClear.2 mph84%30.05 "HgN/A
11:58 PM
Thu, Apr 28
36 °FClear.2 mph85%30.05 "HgN/A
10:58 PM41 °FClear.2 mph70%30.04 "HgN/A
9:58 PM42 °FClear.3 mph66%30.04 "HgN/A
8:58 PM44 °FSunny.7 mph56%30.02 "HgN/A
7:58 PM48 °FPartly sunny.9 mph47%30.01 "HgN/A
6:58 PM52 °FPartly sunny.6 mph35%30.01 "HgN/A
5:58 PM52 °FScattered clouds.12 mph38%30.00 "HgN/A
4:58 PM52 °FPassing clouds.12 mph41%29.99 "HgN/A
3:58 PM52 °FPartly sunny.12 mph36%29.99 "HgN/A
2:58 PM49 °FPartly sunny.7 mph40%30.00 "HgN/A
1:58 PM50 °FPartly sunny.12 mph47%30.00 "HgN/A
Weather by CustomWeather, © 2016

See weather overviewHow to use our weather pages